This is the latest recevied weather packets stored in our database for station/object KI4FRU. If no packets are shown the sender has not sent any weather packets the latest 10 day(s).
| Time | Temp. | Humidity | Pressure | Rain* | Wind** | Luminosity | Snow |
|---|---|---|---|---|---|---|---|
| 1777514150 | 20° C | 85% | 1049 hPa | 0 mm | - | 0 W/m² | - |
| 1777513848 | 20° C | 86% | 1048.9 hPa | 0 mm | - | 0 W/m² | - |
| 1777513545 | 20.56° C | 87% | 1048.8 hPa | 0 mm | - | 0 W/m² | - |
| 1777513242 | 21.11° C | 85% | 1048.9 hPa | 0 mm | - | 0 W/m² | - |
| 1777512937 | 21.11° C | 82% | 1048.8 hPa | 0 mm | - | 0 W/m² | - |
| 1777512634 | 21.67° C | 81% | 1048.6 hPa | 0 mm | - | 0 W/m² | - |
| 1777512331 | 21.67° C | 80% | 1048.5 hPa | 0 mm | - | 0 W/m² | - |
| 1777512028 | 21.67° C | 79% | 1048.5 hPa | 0 mm | - | 0 W/m² | - |
| 1777511726 | 21.67° C | 80% | 1048.3 hPa | 0 mm | - | 0 W/m² | - |
| 1777511423 | 21.67° C | 79% | 1048.1 hPa | 0 mm | - | 0 W/m² | - |
| 1777511120 | 22.22° C | 78% | 1048.1 hPa | 0 mm | - | 0 W/m² | - |
| 1777510815 | 22.22° C | 78% | 1047.8 hPa | 0 mm | - | 0 W/m² | - |
| 1777510513 | 22.22° C | 77% | 1047.8 hPa | 0 mm | - | 0 W/m² | - |
| 1777510209 | 22.78° C | 77% | 1047.7 hPa | 0 mm | - | 0 W/m² | - |
| 1777509905 | 22.78° C | 76% | 1047.6 hPa | 0 mm | - | 0 W/m² | - |
| 1777509601 | 22.78° C | 76% | 1047.6 hPa | 0 mm | - | 0 W/m² | - |
| 1777509297 | 22.78° C | 78% | 1047.8 hPa | 0 mm | - | 0 W/m² | - |
| 1777508995 | 22.22° C | 80% | 1047.8 hPa | 0 mm | - | 0 W/m² | - |
| 1777508692 | 22.22° C | 83% | 1047.7 hPa | 0 mm | - | 0 W/m² | - |
| 1777508389 | 22.22° C | 84% | 1047.6 hPa | 0 mm | - | 1 W/m² | - |
| 1777508086 | 22.22° C | 88% | 1047.4 hPa | 0 mm | - | 2 W/m² | - |
| 1777507783 | 22.22° C | 90% | 1047.4 hPa | 0 mm | - | 3 W/m² | - |
| 1777507480 | 21.67° C | 90% | 1047.4 hPa | 0 mm | - | 4 W/m² | - |
| 1777507176 | 22.22° C | 97% | 1047.2 hPa | 0 mm | - | 6 W/m² | - |
| 1777506874 | 22.22° C | 98% | 1047.4 hPa | 0 mm | - | 8 W/m² | - |
* Rain latest hour (hover to see other rain measurements)
** Current wind speed in m/s (hover to see current wind gust speed)